Hourly Data Report for October 31, 2014

All times are specified in Local Standard Time (LST). Add 1 hour to adjust for Daylight Saving Time where and when it is observed.

KAMLOOPS A
BRITISH COLUMBIA

50°42'09.000" N
120°26'55.000" W
345.30 m
1163781
71887
YKA

Download Data

Hourly Data (October 2014)
Hourly Data Report for October 31, 2014
Temp Definition
°C
Dew Point Temp Definition
°C
Rel Hum Definition
%
Wind Dir Definition
10's deg

Wind Spd Definition
km/h
Visibility Definition
km
Stn Press Definition
kPa
Hmdx Definition


Wind Chill Definition


Weather Definition


TIME
00:00 Legend Double Dagger 11.6 7.2 74 12 22 64.4 96.50     LegendNANA
01:00 Legend Double Dagger 11.5 7.1 74 11 21 64.4 96.51     Cloudy
02:00 Legend Double Dagger 11.5 6.9 73 8 18 64.4 96.53     LegendNANA
03:00 Legend Double Dagger 11.4 7.0 74 11 29 64.4 96.48     LegendNANA
04:00 Legend Double Dagger 11.1 7.3 77 10 26 64.4 96.47     Cloudy
05:00 Legend Double Dagger 10.9 7.4 79 12 26 64.4 96.41     LegendNANA
06:00 Legend Double Dagger 10.9 7.6 80 11 19 64.4 96.42     LegendNANA
07:00 Legend Double Dagger 10.6 7.7 82 10 18 64.4 96.43     Cloudy
08:00 Legend Double Dagger 10.5 7.8 83 12 16 64.4 96.44     LegendNANA
09:00 Legend Double Dagger 10.4 8.4 87 7 10 48.3 96.49     Rain
10:00 Legend Double Dagger 10.5 8.6 88 7 12 48.3 96.46     Cloudy
11:00 Legend Double Dagger 10.8 9.1 89 6 10 64.4 96.44     LegendNANA
12:00 Legend Double Dagger 11.3 9.2 87 8 8 64.4 96.44     LegendNANA
13:00 Legend Double Dagger 11.6 9.0 84 10 10 48.3 96.40     Rain
14:00 Legend Double Dagger 9.6 6.5 81 29 27 16.1 96.48     Rain
15:00 Legend Double Dagger 9.9 6.6 80 24 14 48.3 96.48     Rain
16:00 Legend Double Dagger 9.7 7.0 83 26 11 64.4 96.57     Cloudy
17:00 Legend Double Dagger 9.6 6.2 79 4 5 64.4 96.60     LegendNANA
18:00 Legend Double Dagger 9.4 5.8 78 20 7 64.4 96.68     LegendNANA
19:00 Legend Double Dagger 9.7 5.7 76 22 5 64.4 96.74     Mostly Cloudy
20:00 Legend Double Dagger 8.6 6.2 85 18 3 64.4 96.81     LegendNANA
21:00 Legend Double Dagger 7.5 6.0 90 28 4 64.4 96.91     LegendNANA
22:00 Legend Double Dagger 7.8 6.3 90 34 5 48.3 96.94     Rain
23:00 Legend Double Dagger 7.0 5.8 92 30 5 64.4 96.95     LegendNANA

Notes on Data Quality.

Legend

  • E = Estimated
  • M = Missing
  • NA = Not Available
  • ‡ = Partner data that is not subject to review by the National Climate Archives
Date modified: